Daviess Cnty AP, Washington,, IN

1:37 AM EST on December 06, 2019 (GMT -0500)
Daviess County

Weather History for KDCY - October, 2019

Change the Weather History Date:

Monday, October 7, 2019

  Actual Average (KLWV) Record (KLWV)
Temperature  
Mean Temperature 58 °F -  
Max Temperature 71 °F 70 °F 93 °F (2007)
Min Temperature 45 °F 46 °F 32 °F (2000)
Degree Days  
Heating Degree Days 7    
Growing Degree Days 8 (Base 50)    
Moisture  
Dew Point 48 °F    
Average Humidity 73    
Maximum Humidity 100    
Minimum Humidity 29    
Precipitation  
Precipitation 0.01 in - - ()
Sea Level Pressure  
Sea Level Pressure 30.19 in    
Wind  
Wind Speed 2 mph (NNE)    
Max Wind Speed 10 mph    
Max Gust Speed -    
Visibility 10 miles    
Events      
Averages and records for this station are not official NWS values.
T = Trace of Precipitation, MM = Missing Value Source: NWS Daily Summary

Daily Weather History Graph

Daily Weather History Graph

Search for Another Location

Airport or City:

Astronomy

Oct. 07, 2019 Rise Set
Actual Time 7:49 AM EDT 7:22 PM EDT
Civil Twilight 7:23 AM EDT 7:48 PM EDT
Nautical Twilight 6:52 AM EDT 8:19 PM EDT
Astronomical Twilight 6:21 AM EDT 8:50 PM EDT
Moon 4:39 PM EDT (10/7) 1:47 AM EDT (10/7)
Length of Visible Light 12h 25m
Length of Day
11h 32m
Waxing Gibbous, 69% of the Moon is Illuminated
Oct 7
Waxing Gibbous
Oct 13
Full
Oct 21
Last Quarter
Oct 27
New
Nov 4
First Quarter

Hourly Weather History & Observations

Time (EDT) Temp. Dew Point Humidity Pressure Visibility Wind Dir Wind Speed Gust Speed Precip Events Conditions
12:15 AM 57.4 °F 57.2 °F 99% 30.15 in 10.0 mi Calm Calm - N/A   Overcast
12:35 AM 57.2 °F 57.2 °F 100% 30.17 in 10.0 mi Calm Calm - N/A   Overcast
12:55 AM 57.4 °F 57.2 °F 99% 30.16 in 10.0 mi Calm Calm - N/A   Overcast
1:15 AM 57.2 °F 57.2 °F 100% 30.16 in 10.0 mi Calm Calm - N/A   Overcast
1:35 AM 57.4 °F 57.2 °F 99% 30.17 in 10.0 mi Calm Calm - N/A   Overcast
1:55 AM 57.6 °F 57.4 °F 99% 30.15 in 10.0 mi Calm Calm - N/A   Overcast
2:15 AM 57.4 °F 57.2 °F 99% 30.15 in 10.0 mi Calm Calm - N/A   Overcast
2:35 AM 57.4 °F 57.2 °F 99% 30.16 in 10.0 mi Calm Calm - N/A   Light Drizzle
2:55 AM 57.4 °F 57.2 °F 99% 30.18 in 10.0 mi Calm Calm - N/A   Overcast
3:15 AM 57.4 °F 57.2 °F 99% 30.18 in 10.0 mi Calm Calm - N/A   Overcast
3:35 AM 56.8 °F 56.7 °F 99% 30.17 in 10.0 mi Calm Calm - N/A   Overcast
3:55 AM 56.3 °F 55.9 °F 99% 30.17 in 10.0 mi Calm Calm - N/A   Scattered Clouds
4:15 AM 54.9 °F 54.7 °F 99% 30.17 in 7.0 mi Calm Calm - N/A   Clear
4:35 AM 53.4 °F 53.2 °F 99% 30.17 in 5.0 mi Calm Calm - N/A   Clear
4:55 AM 54.1 °F 54.0 °F 99% 30.17 in 5.0 mi Calm Calm - N/A   Clear
5:15 AM 52.7 °F 52.5 °F 99% 30.17 in 4.0 mi NW 3.5 mph - N/A   Clear
5:55 AM 53.6 °F 53.1 °F 98% 30.17 in 7.0 mi NW 3.5 mph - N/A   Clear
6:15 AM 54.5 °F 54.5 °F 100% 30.17 in 10.0 mi NW 3.5 mph - 0.01 in   Clear
6:35 AM 55.4 °F 55.2 °F 99% 30.17 in 10.0 mi North 4.6 mph - 0.01 in   Clear
6:55 AM 55.9 °F 53.1 °F 90% 30.17 in 10.0 mi North 6.9 mph - 0.01 in   Clear
7:15 AM 55.6 °F 51.1 °F 85% 30.17 in 10.0 mi North 5.8 mph - N/A   Clear
7:35 AM 55.0 °F 50.4 °F 84% 30.17 in 10.0 mi North 5.8 mph - N/A   Clear
7:55 AM 54.7 °F 50.0 °F 84% 30.18 in 10.0 mi Calm Calm - N/A   Clear
8:15 AM 54.5 °F 50.2 °F 85% 30.19 in 10.0 mi Calm Calm - N/A   Clear
8:35 AM 53.8 °F 51.6 °F 92% 30.20 in 10.0 mi Calm Calm - N/A   Clear
8:55 AM 54.5 °F 50.2 °F 85% 30.20 in 10.0 mi NNW 3.5 mph - N/A   Clear
9:15 AM 55.4 °F 50.2 °F 83% 30.20 in 10.0 mi Calm Calm - N/A   Clear
9:35 AM 56.1 °F 50.9 °F 83% 30.21 in 10.0 mi Calm Calm - N/A   Clear
9:55 AM 56.8 °F 51.4 °F 82% 30.21 in 10.0 mi North 3.5 mph - N/A   Clear
10:15 AM 57.2 °F 51.8 °F 82% 30.22 in 10.0 mi Calm Calm - N/A   Clear
10:55 AM 60.1 °F 50.2 °F 70% 30.22 in 10.0 mi NE 4.6 mph - N/A   Clear
11:15 AM 61.3 °F 49.6 °F 65% 30.23 in 10.0 mi NNE 10.4 mph - N/A   Clear
11:35 AM 61.9 °F 47.7 °F 60% 30.23 in 10.0 mi NE 4.6 mph - N/A   Clear
11:55 AM 63.7 °F 46.6 °F 54% 30.23 in 10.0 mi NE 6.9 mph - N/A   Clear
12:15 PM 65.1 °F 46.0 °F 50% 30.23 in 10.0 mi North 9.2 mph - N/A   Clear
12:35 PM 66.4 °F 45.5 °F 47% 30.24 in 10.0 mi NNE 10.4 mph - N/A   Clear
12:55 PM 66.0 °F 44.2 °F 45% 30.23 in 10.0 mi NE 5.8 mph - N/A   Clear
1:15 PM 67.1 °F 43.5 °F 42% 30.22 in 10.0 mi NE 6.9 mph - N/A   Clear
1:35 PM 68.0 °F 42.6 °F 40% 30.22 in 10.0 mi NE 6.9 mph - N/A   Clear
1:55 PM 67.6 °F 42.8 °F 41% 30.21 in 10.0 mi NE 9.2 mph - N/A   Clear
2:15 PM 68.5 °F 42.3 °F 38% 30.20 in 10.0 mi ENE 8.1 mph - N/A   Clear
2:35 PM 68.0 °F 40.8 °F 37% 30.20 in 10.0 mi NNE 3.5 mph - N/A   Clear
2:55 PM 70.0 °F 40.6 °F 34% 30.19 in 10.0 mi ENE 5.8 mph - N/A   Clear
3:15 PM 70.7 °F 39.9 °F 33% 30.19 in 10.0 mi NE 10.4 mph - N/A   Clear
3:35 PM 70.5 °F 39.7 °F 33% 30.18 in 10.0 mi NNE 5.8 mph - N/A   Clear
3:55 PM 70.9 °F 40.6 °F 33% 30.18 in 10.0 mi NNE 6.9 mph - N/A   Clear
4:15 PM 70.9 °F 40.5 °F 33% 30.18 in 10.0 mi ENE 4.6 mph - N/A   Clear
4:35 PM 71.6 °F 38.1 °F 30% 30.17 in 10.0 mi North 9.2 mph - N/A   Clear
4:55 PM 71.8 °F 37.6 °F 29% 30.17 in 10.0 mi North 10.4 mph - N/A   Clear
5:15 PM 71.1 °F 36.9 °F 29% 30.17 in 10.0 mi North 5.8 mph - N/A   Clear
5:35 PM 71.2 °F 37.9 °F 30% 30.17 in 10.0 mi North 4.6 mph - N/A   Clear
6:15 PM 70.2 °F 38.7 °F 32% 30.17 in 10.0 mi NNE 4.6 mph - N/A   Clear
6:35 PM 69.3 °F 38.7 °F 33% 30.17 in 10.0 mi NNE 3.5 mph - N/A   Clear
6:55 PM 67.5 °F 39.6 °F 36% 30.17 in 10.0 mi ENE 3.5 mph - N/A   Clear
7:15 PM 65.7 °F 39.6 °F 38% 30.17 in 10.0 mi ENE 3.5 mph - N/A   Clear
7:35 PM 55.2 °F 46.4 °F 72% 30.17 in 10.0 mi Calm Calm - N/A   Clear
7:55 PM 52.7 °F 45.7 °F 77% 30.18 in 10.0 mi Calm Calm - N/A   Clear
8:15 PM 52.2 °F 45.1 °F 77% 30.18 in 10.0 mi Calm Calm - N/A   Clear
8:35 PM 51.4 °F 44.8 °F 78% 30.19 in 10.0 mi Calm Calm - N/A   Clear
8:55 PM 51.4 °F 43.9 °F 75% 30.20 in 10.0 mi Calm Calm - N/A   Clear
9:15 PM 51.8 °F 45.1 °F 78% 30.20 in 10.0 mi Calm Calm - N/A   Clear
9:35 PM 50.5 °F 44.2 °F 79% 30.20 in 10.0 mi Calm Calm - N/A   Clear
9:55 PM 48.6 °F 44.1 °F 84% 30.21 in 10.0 mi Calm Calm - N/A   Clear
10:15 PM 48.4 °F 44.6 °F 87% 30.21 in 10.0 mi Calm Calm - N/A   Clear
10:35 PM 48.2 °F 44.8 °F 88% 30.21 in 10.0 mi Calm Calm - N/A   Clear
10:55 PM 47.7 °F 44.8 °F 90% 30.22 in 10.0 mi Calm Calm - N/A   Clear
11:15 PM 46.9 °F 46.0 °F 97% 30.22 in 10.0 mi ESE 3.5 mph - N/A   Clear
11:35 PM 45.0 °F 44.2 °F 97% 30.22 in 10.0 mi Calm Calm - N/A   Clear
11:55 PM 45.7 °F 44.4 °F 95% 30.22 in 10.0 mi Calm Calm - N/A   Clear